Location: Balaclava NSW 2575, Australia
(34.4510°S, 150.4953°E)
Time: 04:55:17
(UTC+10:00)

Envisat - Pass Details

Date: 25 May 2021
Orbit: 764 x 766 km, 98.1° (Epoch: 15 June)

Event Time Altitude Azimuth Distance (km) Brightness Sun altitude
Rises 03:53:55 0° 39° (NE) 3,221 6.7 -36.2°
Reaches altitude 10° 03:56:25 10° 48° (NE) 2,303 6.0 -35.6°
Maximum altitude 04:00:52 32° 110° (ESE) 1,313 4.6 -34.7°
Enters shadow 04:01:20 31° 120° (ESE) 1,328 4.5 -34.6°
